[[{"header":{"parameterUnit":"m.s-1","parameterCategory":1,"la1":30.2991,"la2":30.254,"lo1":-89.0895,"lo2":-89.0444,"dy":0.0017,"dx":0.0017,"nx":28,"ny":28,"refTime":"2024-08-07T21:00:00:Z","depth":0,"parameterNumber":2,"parameterNumberName":"U-component_of_WINDS"},"data":[0,0,0,0,0,0,0,0,0,0,0,0,0,0,0,0,0,0,0,0,0,0,0,0,0,0,0,0,0,0,0,0,0,0,0,0,0,0,0,0,0,0,0,0,0,0,0,0,0,0,0,0,0,0,0,0,0,0,3.5096,3.5096,0,3.5175,3.5175,3.5176,3.5128,3.5125,3.5123,3.5121,3.5208,3.5212,3.5217,0,0,0,0,0,0,0,0,0,0,0,0,0,3.491,3.4914,3.5095,3.5096,3.5097,3.5174,3.5176,3.5177,3.5128,3.5125,3.5122,3.512,3.5207,3.5212,3.5217,0,0,0,0,0,0,0,0,0,0,0,0,0,3.499,3.4915,3.5095,3.5082,3.5082,3.5174,3.5176,3.5177,3.5129,3.5125,3.5121,3.5118,3.5205,3.5211,3.5218,3.533,0,0,3.5239,3.5241,0,0,0,0,0,0,0,0,3.4986,3.4997,3.5083,3.5083,3.5083,3.5137,3.5142,3.5228,3.5129,3.5111,3.5121,3.5117,3.5188,3.5196,3.5218,3.5334,3.5337,3.5239,3.5243,3.5246,3.5248,0,0,0,0,0,0,0,3.498,3.4994,3.5127,3.5085,3.5084,3.5075,3.5083,3.5158,3.5168,3.5112,3.5109,3.5119,3.5187,3.5212,3.522,3.5339,3.5239,3.5245,3.5249,3.5252,3.5554,3.5558,0,0,0,0,0,0,3.4975,3.4989,3.5124,3.5129,3.5025,3.5081,3.509,3.5124,3.5167,3.517,3.5122,3.5116,3.5202,3.5212,3.5223,3.5359,3.5246,3.5252,3.5256,3.555,3.5555,3.5559,0,0,0,0,0,0,3.4971,3.4987,3.5121,3.5058,3.5075,3.5088,3.5127,3.5127,3.5152,3.5174,3.5176,3.5145,3.52,3.5213,3.5304,3.5362,3.5255,3.5262,3.5546,3.5552,3.5557,3.5631,0,0,0,0,0,0,3.4966,3.4986,3.5027,3.506,3.5078,3.5199,3.513,3.5131,3.5163,3.5156,3.5196,3.52,3.5198,3.5294,3.5311,3.5369,3.5267,3.554,3.5548,3.5555,3.5624,3.5639,3.5652,0,0,0,0,0,3.496,3.5045,3.5029,3.5046,3.5129,3.5202,3.5213,3.5207,3.5167,3.521,3.5225,3.5198,3.5352,3.5304,3.5322,3.5383,3.5537,3.5546,3.5555,3.5618,3.5636,3.5652,0,0,0,0,0,0,3.502,3.5049,3.5031,3.5129,3.5163,3.5193,3.5246,3.5227,3.5274,3.5266,3.526,3.5269,3.5365,3.5383,3.5328,3.5496,3.5439,3.5452,3.548,3.5498,3.5512,3.5507,3.5272,0,0,0,0,0,3.5044,3.5099,3.5122,3.5207,3.5224,3.5233,3.5264,3.5257,3.5293,3.5308,3.5329,3.5367,3.5424,3.5462,3.5515,3.5626,3.5637,3.5678,3.5692,3.5703,3.5715,3.578,3.5799,3.5589,3.5589,3.5589,0,0,3.5096,3.5118,3.5154,3.5219,3.5245,3.5305,3.5245,3.531,3.5355,3.5318,3.5405,3.5423,3.5465,3.5567,3.5613,3.5585,3.5776,3.5715,3.5724,3.573,3.5791,3.5811,3.5828,3.5595,3.5594,3.5593,0,0,3.5221,3.5242,3.5316,3.5343,3.5382,3.5387,3.5405,3.5439,3.5449,3.5535,3.551,3.5565,3.5663,3.5695,3.5724,3.5865,3.5844,3.5882,3.5957,3.602,3.6036,3.6051,3.6105,3.6123,3.5894,3.5894,3.5894,0,3.5281,3.5367,3.5357,3.5425,3.5457,3.5424,3.5502,3.5529,3.5585,3.5609,3.5576,3.57,3.5726,3.5837,3.5871,3.5895,3.5918,3.5878,3.6034,3.6049,3.6063,3.6114,3.6133,3.5899,3.5898,3.5898,3.5897,0,3.5441,3.5501,3.5557,3.561,3.5648,3.572,3.5725,3.5764,3.5755,3.5765,3.5856,3.5886,3.5947,3.5973,3.5964,3.6084,3.6066,3.6034,3.5977,3.6087,3.6136,3.6155,3.5905,3.5904,3.5902,3.5901,0,0,3.5605,3.5653,3.5674,3.57,3.5741,3.579,3.5862,3.592,3.5956,3.5996,3.606,3.6144,3.6116,3.6149,3.6144,3.6199,3.6313,3.6161,3.6162,3.6191,3.6452,3.6477,3.65,3.6299,3.6302,3.6305,3.6449,0,3.5735,3.5859,3.5854,3.5971,3.603,3.6001,3.6065,3.61,3.6112,3.6166,3.6179,3.6241,3.6197,3.6217,3.627,3.6288,3.6366,3.6277,3.6361,3.6364,3.6354,3.6524,3.6551,3.6685,3.6468,3.6471,3.6473,0,3.5902,3.5948,3.6071,3.6107,3.6131,3.6188,3.6243,3.6293,3.6334,3.6339,3.6377,3.6365,3.6442,3.6382,3.6491,3.6431,3.6465,3.648,3.6485,3.6494,3.6427,3.6541,3.6727,3.6749,3.6502,3.6499,3.6497,0,3.6014,3.6106,3.6192,3.6214,3.6258,3.6299,3.632,3.6356,3.6393,3.6441,3.6466,3.6523,3.6556,3.6602,3.6607,3.6562,3.6719,3.6657,3.6728,3.6729,3.6764,3.6762,3.6961,3.6782,3.6782,3.6781,3.6781,0,3.6161,3.6239,3.6243,3.6297,3.6384,3.6378,3.6466,3.6483,3.6516,3.6575,3.6554,3.6611,3.6612,3.6671,3.6676,3.6768,3.6782,3.6791,3.6792,3.6794,3.6794,3.6818,3.681,3.6787,3.6785,3.6784,3.6783,0,3.6301,3.6307,3.64,3.6434,3.6444,3.6507,3.6538,3.6591,3.6601,3.6676,3.6694,3.6711,3.678,3.6788,3.6869,3.6872,3.6984,3.6973,3.697,3.6969,3.7041,3.7035,3.7265,3.7296,3.7094,3.7095,3.7097,0,3.6396,3.6455,3.6495,3.6532,3.6555,3.6614,3.6651,3.6649,3.669,3.6742,3.6789,3.6855,3.6908,3.7019,3.7041,3.7104,3.7097,3.7173,3.7106,3.7108,3.7102,3.71,3.7107,3.7187,3.7189,3.719,3.7192,0,3.6564,3.6565,3.6617,3.6673,3.6717,3.6761,3.6802,3.6835,3.6839,3.6885,3.6954,3.6995,3.7077,3.7145,3.7207,3.7231,3.7215,3.7213,3.7233,3.7238,3.7235,3.7241,3.7008,3.7208,3.7206,3.7205,3.7204,3.7204,3.6687,3.6739,3.6776,3.6837,3.6868,3.6907,3.696,3.6976,3.7033,3.7099,3.7095,3.7172,3.7215,3.7296,3.7325,3.7388,3.7363,3.7392,3.74,3.7408,3.7416,3.7222,3.7399,3.7398,3.7398,3.7398,3.7397,0,3.6857,3.688,3.6935,3.6994,3.7043,3.7019,3.7065,3.7108,3.7176,3.7215,3.7268,3.735,3.7416,3.7443,3.7509,3.7554,3.7548,3.7572,3.757,3.7577,3.7433,3.741,3.7576,3.7576,3.7576,3.7576,3.7576,3.7576,3.6952,3.704,3.7045,3.715,3.7173,3.7247,3.7276,3.7314,3.7346,3.7437,3.7491,3.7508,3.7544,3.7613,3.7674,3.7681,3.7708,3.7735,3.7739,3.7604,3.7587,3.7569,3.7548,3.774,3.7741,3.7879,3.788,3.7881]},{"header":{"parameterUnit":"m.s-1","parameterCategory":1,"la1":30.2991,"la2":30.254,"lo1":-89.0895,"lo2":-89.0444,"dy":0.0017,"dx":0.0017,"nx":28,"ny":28,"refTime":"2024-08-07T21:00:00:Z","depth":0,"parameterNumber":3,"parameterNumberName":"V-component_of_WINDS"},"data":[0,0,0,0,0,0,0,0,0,0,0,0,0,0,0,0,0,0,0,0,0,0,0,0,0,0,0,0,0,0,0,0,0,0,0,0,0,0,0,0,0,0,0,0,0,0,0,0,0,0,0,0,0,0,0,0,0,0,-4.6339,-4.6339,0,-4.6375,-4.6375,-4.6376,-4.6413,-4.6414,-4.6414,-4.6415,-4.6448,-4.6448,-4.6449,0,0,0,0,0,0,0,0,0,0,0,0,0,-4.6299,-4.6299,-4.6339,-4.6339,-4.634,-4.6375,-4.6376,-4.6376,-4.6413,-4.6414,-4.6414,-4.6415,-4.6448,-4.6448,-4.6449,0,0,0,0,0,0,0,0,0,0,0,0,0,-4.6324,-4.6299,-4.6339,-4.6362,-4.6365,-4.6375,-4.6376,-4.6376,-4.6413,-4.6414,-4.6414,-4.6415,-4.6448,-4.6448,-4.6449,-4.6437,0,0,-4.6451,-4.6451,0,0,0,0,0,0,0,0,-4.6322,-4.6325,-4.6358,-4.6361,-4.6364,-4.639,-4.6374,-4.6396,-4.6413,-4.6394,-4.6415,-4.6415,-4.6428,-4.643,-4.6435,-4.6439,-4.644,-4.6451,-4.6451,-4.6451,-4.6452,0,0,0,0,0,0,0,-4.632,-4.6324,-4.6353,-4.6359,-4.6362,-4.637,-4.6375,-4.6378,-4.6406,-4.6396,-4.6399,-4.6403,-4.6429,-4.6435,-4.6436,-4.6441,-4.6451,-4.6451,-4.6452,-4.6452,-4.6437,-4.6436,0,0,0,0,0,0,-4.6315,-4.6322,-4.6352,-4.6354,-4.6344,-4.6371,-4.6375,-4.6381,-4.6406,-4.6411,-4.6402,-4.6405,-4.6433,-4.6435,-4.6438,-4.6425,-4.6451,-4.6452,-4.6452,-4.6438,-4.6437,-4.6436,0,0,0,0,0,0,-4.6314,-4.6318,-4.635,-4.6339,-4.6344,-4.637,-4.6376,-4.6381,-4.6386,-4.6411,-4.6416,-4.6402,-4.6434,-4.6437,-4.6437,-4.6427,-4.6452,-4.6453,-4.6438,-4.6437,-4.6436,-4.64,0,0,0,0,0,0,-4.6313,-4.6317,-4.6313,-4.6338,-4.6344,-4.635,-4.6376,-4.6381,-4.6388,-4.6391,-4.6412,-4.6417,-4.6435,-4.6436,-4.6438,-4.6428,-4.6453,-4.6439,-4.6438,-4.6437,-4.6403,-4.6398,-4.6394,0,0,0,0,0,-4.6312,-4.6301,-4.6313,-4.6316,-4.634,-4.6349,-4.6352,-4.6374,-4.6387,-4.6383,-4.6399,-4.6416,-4.6428,-4.6436,-4.6438,-4.6428,-4.644,-4.6438,-4.6437,-4.6404,-4.6399,-4.6395,0,0,0,0,0,0,-4.6271,-4.6304,-4.6318,-4.6315,-4.633,-4.6356,-4.6351,-4.6368,-4.6377,-4.638,-4.6406,-4.641,-4.6408,-4.6419,-4.6427,-4.6419,-4.6437,-4.6435,-4.6411,-4.6407,-4.6403,-4.6399,-4.6454,0,0,0,0,0,-4.6263,-4.6269,-4.6297,-4.6291,-4.6298,-4.6323,-4.6328,-4.6344,-4.6359,-4.6365,-4.6381,-4.6394,-4.6401,-4.6405,-4.6413,-4.6405,-4.641,-4.64,-4.6396,-4.6392,-4.639,-4.6387,-4.6382,-4.643,-4.643,-4.643,0,0,-4.6243,-4.6262,-4.6264,-4.6284,-4.6297,-4.6301,-4.6328,-4.6331,-4.6335,-4.6365,-4.6367,-4.6379,-4.6396,-4.6392,-4.6392,-4.6401,-4.6379,-4.639,-4.6387,-4.6387,-4.6385,-4.638,-4.6376,-4.6429,-4.6429,-4.6429,0,0,-4.6211,-4.6226,-4.6224,-4.6237,-4.6257,-4.6274,-4.6274,-4.6298,-4.6308,-4.6311,-4.6334,-4.6338,-4.6349,-4.636,-4.6367,-4.6342,-4.6357,-4.6344,-4.6321,-4.6318,-4.6314,-4.6311,-4.63,-4.6296,-4.6342,-4.6342,-4.6342,0,-4.6184,-4.6193,-4.622,-4.6223,-4.6231,-4.6261,-4.6258,-4.6269,-4.629,-4.6294,-4.6305,-4.6321,-4.6334,-4.6334,-4.6328,-4.6333,-4.6332,-4.634,-4.6313,-4.631,-4.6307,-4.6297,-4.6293,-4.634,-4.634,-4.634,-4.634,0,-4.6159,-4.6165,-4.616,-4.6182,-4.6189,-4.6189,-4.6215,-4.622,-4.6236,-4.6252,-4.6255,-4.6272,-4.6284,-4.6286,-4.6301,-4.6288,-4.6293,-4.6308,-4.6326,-4.63,-4.6291,-4.6288,-4.6337,-4.6338,-4.6338,-4.6339,0,0,-4.6098,-4.6137,-4.6135,-4.6145,-4.6171,-4.6175,-4.6177,-4.6191,-4.6193,-4.6208,-4.6209,-4.6219,-4.6234,-4.6242,-4.6259,-4.6256,-4.6234,-4.6272,-4.6272,-4.6262,-4.6219,-4.6206,-4.6201,-4.6246,-4.6245,-4.6245,-4.6217,0,-4.6069,-4.6075,-4.61,-4.6098,-4.6103,-4.6134,-4.6135,-4.615,-4.6166,-4.6173,-4.619,-4.6196,-4.6216,-4.6221,-4.622,-4.6237,-4.6225,-4.6239,-4.6245,-4.6245,-4.6238,-4.6197,-4.6183,-4.6156,-4.6214,-4.6214,-4.6213,0,-4.6034,-4.6048,-4.6047,-4.6074,-4.6077,-4.6078,-4.6093,-4.6099,-4.6118,-4.6129,-4.6139,-4.6159,-4.6162,-4.6181,-4.6185,-4.6194,-4.6198,-4.6207,-4.6207,-4.6206,-4.6226,-4.6193,-4.6148,-4.6143,-4.6209,-4.6209,-4.6209,0,-4.5988,-4.6007,-4.6009,-4.6017,-4.6049,-4.6049,-4.6062,-4.6081,-4.6088,-4.6101,-4.6106,-4.6119,-4.6125,-4.6134,-4.6156,-4.6168,-4.6157,-4.6178,-4.6165,-4.6164,-4.6159,-4.6158,-4.6111,-4.6165,-4.6165,-4.6166,-4.6166,0,-4.5951,-4.5949,-4.5989,-4.599,-4.5988,-4.6018,-4.6015,-4.6031,-4.6049,-4.6052,-4.608,-4.6082,-4.6113,-4.6119,-4.6137,-4.6137,-4.614,-4.6148,-4.6152,-4.6144,-4.6143,-4.6145,-4.6147,-4.6165,-4.6165,-4.6165,-4.6165,0,-4.5898,-4.5926,-4.5929,-4.5961,-4.5969,-4.5966,-4.5992,-4.5993,-4.6012,-4.6016,-4.6019,-4.6048,-4.6057,-4.6081,-4.6095,-4.6108,-4.6101,-4.6111,-4.6095,-4.6097,-4.6083,-4.6083,-4.6034,-4.6028,-4.6087,-4.6087,-4.6086,0,-4.5871,-4.5871,-4.5903,-4.5908,-4.5921,-4.5929,-4.5937,-4.5967,-4.5974,-4.5996,-4.5995,-4.6006,-4.6016,-4.6029,-4.605,-4.6061,-4.607,-4.6052,-4.6071,-4.6064,-4.6067,-4.6066,-4.6066,-4.6047,-4.6046,-4.6045,-4.6045,0,-4.582,-4.5835,-4.5846,-4.5862,-4.5872,-4.5885,-4.5901,-4.5903,-4.5937,-4.5943,-4.5954,-4.5962,-4.5978,-4.5988,-4.6004,-4.6016,-4.6035,-4.6039,-4.6037,-4.6027,-4.6017,-4.602,-4.6081,-4.6039,-4.604,-4.604,-4.6041,-4.6041,-4.5778,-4.5779,-4.5803,-4.5814,-4.583,-4.5844,-4.5847,-4.5868,-4.5877,-4.5894,-4.5911,-4.5919,-4.5939,-4.5962,-4.5973,-4.5979,-4.5989,-4.5986,-4.5984,-4.5982,-4.5978,-4.6019,-4.5982,-4.5982,-4.5982,-4.5983,-4.5983,0,-4.5727,-4.5745,-4.5756,-4.5777,-4.5787,-4.5808,-4.5826,-4.5832,-4.5839,-4.5857,-4.5868,-4.5879,-4.589,-4.5914,-4.5927,-4.5927,-4.5936,-4.5929,-4.5928,-4.593,-4.5969,-4.5969,-4.5921,-4.5921,-4.5921,-4.5921,-4.5921,-4.5921,-4.5701,-4.5704,-4.5722,-4.5732,-4.575,-4.5759,-4.5768,-4.5781,-4.5795,-4.5808,-4.5818,-4.5834,-4.5854,-4.5869,-4.5879,-4.5886,-4.5888,-4.5878,-4.5887,-4.5922,-4.5927,-4.5933,-4.5933,-4.5878,-4.5878,-4.5847,-4.5847,-4.5847]}]]